Ocean City, MD

11:42 AM EDT on June 28, 2017 (GMT -0400)
Ocean City Municipal

Weather History for KOXB - September, 2012

Change the Weather History Date:

Monday, September 24, 2012

  Actual Average (KSBY) Record (KSBY)
Temperature  
Mean Temperature 58 °F -  
Max Temperature 70 °F 74 °F 95 °F (2010)
Min Temperature 45 °F 53 °F 39 °F (1963)
Degree Days  
Heating Degree Days 8    
Growing Degree Days 8 (Base 50)    
Moisture  
Dew Point 46 °F    
Average Humidity 74    
Maximum Humidity 97    
Minimum Humidity 38    
Precipitation  
Precipitation 0.00 in - - ()
Sea Level Pressure  
Sea Level Pressure 30.17 in    
Wind  
Wind Speed 3 mph (NNW)    
Max Wind Speed 10 mph    
Max Gust Speed -    
Visibility 10 miles    
Events      
Averages and records for this station are not official NWS values.
T = Trace of Precipitation, MM = Missing Value Source: NWS Daily Summary

Daily Weather History Graph

Daily Weather History Graph

Search for Another Location

Airport or City:

Trip Planner

Search our weather history database for the weather conditions in past years. The results will help you decide how hot, cold, wet, or windy it might be!

Date:

Astronomy

Sep. 24, 2012 Rise Set
Actual Time 6:50 AM EDT 6:53 PM EDT
Civil Twilight 6:24 AM EDT 7:19 PM EDT
Nautical Twilight 5:53 AM EDT 7:50 PM EDT
Astronomical Twilight 5:22 AM EDT 8:21 PM EDT
Moon 3:34 PM EDT (9/24) 1:08 AM EDT (9/24)
Length of Visible Light 12h 55m
Length of Day
12h 03m
Waxing Gibbous, 70% of the Moon is Illuminated
Sep 24
Waxing Gibbous
Sep 29
Full
Oct 8
Last Quarter
Oct 15
New
Oct 21
First Quarter

Hourly Weather History & Observations

Time (EDT) Temp. Windchill Dew Point Humidity Pressure Visibility Wind Dir Wind Speed Gust Speed Precip Events Conditions
12:53 AM 46.9 °F - 45.0 °F 93% 30.13 in 10.0 mi Calm Calm - N/A   Clear
1:53 AM 45.0 °F - 44.1 °F 97% 30.13 in 10.0 mi Calm Calm - N/A   Clear
2:53 AM 45.0 °F 43.5 °F 44.1 °F 97% 30.13 in 10.0 mi NW 3.5 mph - N/A   Clear
3:53 AM 46.0 °F 43.9 °F 44.1 °F 93% 30.14 in 10.0 mi NNW 4.6 mph - N/A   Clear
4:53 AM 46.0 °F 43.1 °F 43.0 °F 89% 30.14 in 10.0 mi NNW 5.8 mph - N/A   Clear
5:53 AM 46.0 °F 43.9 °F 44.1 °F 93% 30.15 in 10.0 mi NNW 4.6 mph - N/A   Clear
6:53 AM 46.0 °F 43.9 °F 45.0 °F 96% 30.17 in 10.0 mi NNW 4.6 mph - N/A   Clear
7:53 AM 51.1 °F - 46.9 °F 86% 30.19 in 9.0 mi NNW 4.6 mph - N/A   Clear
8:53 AM 57.9 °F - 50.0 °F 75% 30.19 in 10.0 mi NNW 4.6 mph - N/A   Clear
9:53 AM 64.9 °F - 48.9 °F 56% 30.21 in 10.0 mi NNW 8.1 mph - N/A   Clear
10:53 AM 66.0 °F - 44.1 °F 45% 30.21 in 10.0 mi NNW 10.4 mph - N/A   Clear
11:53 AM 68.0 °F - 43.0 °F 40% 30.20 in 10.0 mi North 9.2 mph - N/A   Clear
12:53 PM 68.0 °F - 43.0 °F 40% 30.19 in 10.0 mi NW 5.8 mph - N/A   Partly Cloudy
1:53 PM 70.0 °F - 43.0 °F 38% 30.17 in 10.0 mi Variable 6.9 mph - N/A   Scattered Clouds
2:53 PM 66.0 °F - 43.0 °F 43% 30.17 in 10.0 mi NNW 4.6 mph - N/A   Scattered Clouds
3:53 PM 64.9 °F - 46.9 °F 52% 30.16 in 10.0 mi East 5.8 mph - N/A   Overcast
4:53 PM 64.9 °F - 46.9 °F 52% 30.16 in 10.0 mi ESE 6.9 mph - N/A   Scattered Clouds
5:53 PM 64.0 °F - 46.9 °F 54% 30.16 in 10.0 mi Calm Calm - N/A   Partly Cloudy
6:53 PM 61.0 °F - 46.9 °F 60% 30.17 in 10.0 mi Calm Calm - N/A   Clear
7:53 PM 52.0 °F - 48.9 °F 89% 30.17 in 10.0 mi Calm Calm - N/A   Clear
8:53 PM 48.9 °F - 48.0 °F 97% 30.18 in 10.0 mi Calm Calm - N/A   Clear
9:53 PM 50.0 °F - 46.9 °F 89% 30.19 in 10.0 mi WSW 3.5 mph - N/A   Clear
10:53 PM 46.9 °F - 46.0 °F 97% 30.20 in 10.0 mi Calm Calm - N/A   Clear
11:53 PM 46.9 °F - 45.0 °F 93% 30.20 in 10.0 mi Calm Calm - N/A   Clear